| time (UTC) | temp F | wind direction | speed MPH | gust MPH | rain 1hr in | rain 24hr in | rain mn in | humidity % | barometer mb |
| 20260506090028 | 52 | 91 | 5.0 | 12.0 | 0.00 | 0.00 | 0.00 | 91 | 1010.1 |
| 20260506085524 | 52 | 88 | 4.0 | 10.0 | 0.00 | 0.00 | 0.00 | 91 | 1010.0 |
| 20260506085021 | 53 | 136 | 5.0 | 17.0 | 0.00 | 0.00 | 0.00 | 91 | 1010.0 |
| 20260506084517 | 53 | 121 | 7.0 | 17.0 | 0.00 | 0.00 | 0.00 | 90 | 1010.0 |
| 20260506083557 | 53 | 157 | 8.0 | 19.0 | 0.00 | 0.00 | 0.00 | 91 | 1010.0 |
| 20260506083039 | 53 | 165 | 6.0 | 17.0 | 0.00 | 0.00 | 0.00 | 90 | 1010.1 |
| 20260506082232 | 52 | 143 | 7.0 | 19.0 | 0.00 | 0.00 | 0.00 | 91 | 1010.2 |
| 20260506081543 | 52 | 151 | 8.0 | 15.0 | 0.00 | 0.00 | 0.00 | 91 | 1010.2 |
| 20260506081032 | 52 | 107 | 6.0 | 15.0 | 0.00 | 0.00 | 0.00 | 91 | 1010.1 |
| 20260506080132 | 52 | 77 | 7.0 | 17.0 | 0.00 | 0.00 | 0.00 | 91 | 1010.0 |
| 20260506073525 | 53 | 139 | 6.0 | 15.0 | 0.00 | 0.00 | 0.00 | 91 | 1009.6 |
| 20260506072642 | 53 | 148 | 4.0 | 13.0 | 0.00 | 0.00 | 0.00 | 90 | 1009.6 |
| 20260506071513 | 53 | 154 | 4.0 | 11.0 | 0.00 | 0.00 | 0.00 | 91 | 1009.6 |
| 20260506070551 | 53 | 137 | 5.0 | 10.0 | 0.00 | 0.00 | 0.00 | 91 | 1009.5 |
| 20260506061933 | 57 | 115 | 5.0 | 13.0 | 0.00 | 0.00 | 0.00 | 82 | 1008.3 |
| 20260506061329 | 61 | 111 | 5.0 | 13.0 | 0.00 | 0.00 | 0.00 | 76 | 1008.8 |
| 20260506060705 | 62 | 48 | 7.0 | 14.0 | 0.00 | 0.00 | 0.00 | 77 | 1009.2 |
| 20260506043351 | 60 | 56 | 5.0 | 11.0 | 0.00 | 0.00 | 0.00 | 84 | 1009.3 |
| 20260506041606 | 55 | 141 | 5.0 | 11.0 | 0.00 | 0.00 | 0.00 | 89 | 1009.7 |
| 20260506032822 | 54 | 142 | 5.0 | 10.0 | 0.00 | 0.00 | 0.00 | 91 | 1008.9 |
| 20260505124602 | 53 | 110 | 0.0 | 6.0 | 0.00 | 0.00 | 0.00 | 90 | 1007.3 |
| 20260505123601 | 53 | 89 | 0.0 | 1.0 | 0.00 | 0.00 | 0.00 | 89 | 1007.2 |
| 20260505122917 | 54 | 143 | 0.0 | 3.0 | 0.00 | 0.00 | 0.00 | 89 | 1007.0 |
| 20260505122237 | 54 | 94 | 0.0 | 3.0 | 0.00 | 0.00 | 0.00 | 88 | 1007.0 |
| 20260505121045 | 54 | 94 | 0.0 | 7.0 | 0.00 | 0.00 | 0.00 | 87 | 1006.7 |
| 20260505115604 | 54 | 91 | 0.0 | 2.0 | 0.00 | 0.00 | 0.00 | 87 | 1006.9 |
| 20260505114559 | 55 | 291 | 0.0 | 2.0 | 0.00 | 0.00 | 0.00 | 86 | 1006.6 |
| 20260505114049 | 55 | 87 | 0.0 | 2.0 | 0.00 | 0.00 | 0.00 | 85 | 1006.6 |
| 20260505113542 | 55 | 101 | 0.0 | 2.0 | 0.00 | 0.00 | 0.00 | 85 | 1006.6 |
| 20260505112552 | 55 | 120 | 0.0 | 1.0 | 0.00 | 0.00 | 0.00 | 84 | 1006.4 |
| 20260505111554 | 55 | 88 | 0.0 | 2.0 | 0.00 | 0.00 | 0.00 | 84 | 1006.3 |
| 20260505111040 | 55 | 96 | 0.0 | 2.0 | 0.00 | 0.00 | 0.00 | 84 | 1006.4 |
| 20260505110539 | 55 | 145 | 0.0 | 4.0 | 0.00 | 0.00 | 0.00 | 84 | 1006.4 |
| 20260505102120 | 56 | 98 | 0.0 | 5.0 | 0.00 | 0.00 | 0.00 | 81 | 1006.0 |
| 20260505101600 | 56 | 88 | 0.0 | 2.0 | 0.00 | 0.00 | 0.00 | 81 | 1005.9 |
| 20260505101056 | 56 | 353 | 0.0 | 1.0 | 0.00 | 0.00 | 0.00 | 81 | 1005.8 |
| 20260505100538 | 57 | 89 | 0.0 | 1.0 | 0.00 | 0.00 | 0.00 | 81 | 1005.4 |
| 20260505095906 | 60 | 98 | 0.0 | 1.0 | 0.00 | 0.00 | 0.00 | 75 | 1003.2 |
| 20260505095208 | 69 | 297 | 0.0 | 1.0 | 0.00 | 0.00 | 0.00 | 55 | 1002.3 |